Albert Lea, MN

9:06 AM CDT on April 30, 2017 (GMT -0500)
Albert Lea Municipal

Weather History for KAEL - December, 2013

Change the Weather History Date:

Friday, December 27, 2013

  Actual Average Record
Temperature  
Mean Temperature 27 °F -  
Max Temperature 42 °F 23 °F 50 °F (2003)
Min Temperature 12 °F 9 °F -5 °F (1998)
Degree Days  
Heating Degree Days 38    
Moisture  
Dew Point 25 °F    
Average Humidity 86    
Maximum Humidity 100    
Minimum Humidity 61    
Precipitation  
Precipitation 0.00 in - - ()
Sea Level Pressure  
Sea Level Pressure 30.05 in    
Wind  
Wind Speed 5 mph (SW)    
Max Wind Speed 16 mph    
Max Gust Speed 24 mph    
Visibility 10 miles    
Events      
Averages and records for this station are not official NWS values.
T = Trace of Precipitation, MM = Missing Value Source: NWS Daily Summary

Daily Weather History Graph

Daily Weather History Graph

Search for Another Location

Airport or City:

Trip Planner

Search our weather history database for the weather conditions in past years. The results will help you decide how hot, cold, wet, or windy it might be!

Date:

Astronomy

Dec. 27, 2013 Rise Set
Actual Time 7:46 AM CST 4:43 PM CST
Civil Twilight 7:13 AM CST 5:16 PM CST
Nautical Twilight 6:37 AM CST 5:52 PM CST
Astronomical Twilight 6:02 AM CST 6:27 PM CST
Moon 2:12 AM CST (12/27) 12:59 PM CST (12/27)
Length of Visible Light 10h 02m
Length of Day
8h 56m
Waning Crescent, 28% of the Moon is Illuminated
Dec 27
Waning Crescent
Jan 1
New
Jan 7
First Quarter
Jan 15
Full
Jan 23
Last Quarter

Hourly Weather History & Observations

Time (CST) Temp. Windchill Dew Point Humidity Pressure Visibility Wind Dir Wind Speed Gust Speed Precip Events Conditions
12:11 AM 24.8 °F - 24.8 °F 100% 30.15 in 10.0 mi Calm Calm - N/A   Scattered Clouds
12:25 AM 24.8 °F 20.5 °F 24.8 °F 100% 30.14 in 10.0 mi West 3.5 mph - N/A   Scattered Clouds
12:51 AM 23.0 °F - 23.0 °F 100% 30.14 in 7.0 mi Calm Calm - N/A   Clear
1:10 AM 19.4 °F 14.3 °F 19.4 °F 100% 30.15 in 3.0 mi WSW 3.5 mph - N/A   Clear
1:31 AM 21.2 °F - 21.2 °F 100% 30.15 in - Calm Calm - N/A   Unknown
1:51 AM 21.2 °F - 21.2 °F 100% 30.15 in - Calm Calm - N/A   Unknown
2:11 AM 19.4 °F - 17.6 °F 93% 30.15 in - Calm Calm - N/A   Unknown
2:31 AM - - - N/A% 30.14 in - Calm Calm - N/A   Unknown
2:51 AM 17.6 °F 12.3 °F 15.8 °F 93% 30.15 in - SSW 3.5 mph - N/A   Unknown
3:10 AM 15.8 °F - 15.8 °F 100% 30.14 in - Calm Calm - N/A   Unknown
3:31 AM 15.8 °F 10.2 °F 15.8 °F 100% 30.14 in - SSW 3.5 mph - N/A   Unknown
3:51 AM 12.2 °F 4.3 °F 12.2 °F 100% 30.14 in - SW 4.6 mph - N/A   Unknown
4:10 AM 15.8 °F 8.6 °F 15.8 °F 100% 30.14 in - SW 4.6 mph - N/A   Unknown
4:31 AM 15.8 °F 7.2 °F 14.0 °F 93% 30.14 in - SSW 5.8 mph - N/A   Unknown
4:51 AM 15.8 °F 6.1 °F 15.8 °F 100% 30.14 in - SSW 6.9 mph - N/A   Unknown
5:10 AM 17.6 °F 12.3 °F 15.8 °F 93% 30.14 in - SW 3.5 mph - N/A   Unknown
5:31 AM 17.6 °F 10.7 °F 17.6 °F 100% 30.14 in - SSW 4.6 mph - N/A   Unknown
5:51 AM 17.6 °F - 17.6 °F 100% 30.14 in - Calm Calm - N/A   Unknown
6:11 AM 17.6 °F - 17.6 °F 100% 30.13 in - Calm Calm - N/A   Unknown
6:31 AM 19.4 °F - 17.6 °F 93% 30.13 in - Calm Calm - N/A   Overcast
6:51 AM 19.4 °F 12.8 °F 17.6 °F 93% 30.13 in - SSW 4.6 mph - N/A   Overcast
7:11 AM 19.4 °F 14.3 °F 19.4 °F 100% 30.12 in - SSW 3.5 mph - N/A   Overcast
7:30 AM 19.4 °F 14.3 °F 19.4 °F 100% 30.12 in - South 3.5 mph - N/A   Overcast
7:51 AM 19.4 °F 12.8 °F 19.4 °F 100% 30.11 in - South 4.6 mph - N/A   Unknown
8:11 AM 21.2 °F 14.9 °F 19.4 °F 93% 30.09 in - South 4.6 mph - N/A   Unknown
8:30 AM 21.2 °F 16.4 °F 19.4 °F 93% 30.08 in - SSW 3.5 mph - N/A   Unknown
8:51 AM 21.2 °F 13.6 °F 21.2 °F 100% 30.08 in - South 5.8 mph - N/A   Unknown
9:11 AM 24.8 °F 19.1 °F 23.0 °F 93% 30.08 in - South 4.6 mph - N/A   Unknown
9:30 AM 24.8 °F 16.9 °F 24.8 °F 100% 30.08 in - South 6.9 mph - N/A   Unknown
9:51 AM 26.6 °F 17.5 °F 26.6 °F 100% 30.06 in - SSW 9.2 mph - N/A   Unknown
10:11 AM 28.4 °F 17.5 °F 28.4 °F 100% 30.05 in 10.0 mi SSW 13.8 mph 17.3 mph N/A   Clear
10:31 AM 32.0 °F 23.0 °F 28.4 °F 87% 30.05 in 10.0 mi SSW 11.5 mph 16.1 mph N/A   Clear
10:51 AM 35.6 °F 28.0 °F 28.4 °F 75% 30.04 in 10.0 mi SSW 10.4 mph 16.1 mph N/A   Clear
11:10 AM 37.4 °F 29.8 °F 28.4 °F 70% 30.01 in 10.0 mi SSW 11.5 mph 19.6 mph N/A   Clear
11:31 AM 39.2 °F 31.2 °F 28.4 °F 65% 30.00 in 10.0 mi SSW 13.8 mph 19.6 mph N/A   Clear
11:51 AM 39.2 °F 30.8 °F 28.4 °F 65% 29.99 in 10.0 mi SSW 15.0 mph 23.0 mph N/A   Clear
12:10 PM 39.2 °F 30.5 °F 28.4 °F 65% 29.98 in 10.0 mi SW 16.1 mph 24.2 mph N/A   Scattered Clouds
12:31 PM 39.2 °F 30.8 °F 28.4 °F 65% 29.97 in 10.0 mi SW 15.0 mph 23.0 mph N/A   Overcast
12:51 PM 39.2 °F 32.0 °F 30.2 °F 70% 29.96 in 10.0 mi SW 11.5 mph 24.2 mph N/A   Overcast
1:10 PM 39.2 °F 30.8 °F 30.2 °F 70% 29.96 in 10.0 mi SW 15.0 mph 19.6 mph N/A   Overcast
1:31 PM 39.2 °F 32.5 °F 30.2 °F 70% 29.95 in 10.0 mi SW 10.4 mph 17.3 mph N/A   Overcast
1:51 PM 41.0 °F 34.3 °F 30.2 °F 65% 29.94 in 10.0 mi SW 11.5 mph 20.7 mph N/A   Scattered Clouds
2:10 PM 41.0 °F 33.9 °F 30.2 °F 65% 29.94 in 10.0 mi SW 12.7 mph 20.7 mph N/A   Clear
2:31 PM 42.8 °F 36.2 °F 30.2 °F 61% 29.95 in 10.0 mi WSW 12.7 mph 20.7 mph N/A   Clear
2:50 PM 42.8 °F 36.6 °F 32.0 °F 66% 29.96 in 10.0 mi WSW 11.5 mph 20.7 mph N/A   Clear
3:11 PM 39.2 °F 32.0 °F 30.2 °F 70% 29.96 in 10.0 mi WSW 11.5 mph 19.6 mph N/A   Clear
3:31 PM 39.2 °F 32.5 °F 30.2 °F 70% 29.97 in 10.0 mi West 10.4 mph 19.6 mph N/A   Clear
3:50 PM 39.2 °F 32.5 °F 30.2 °F 70% 29.97 in 10.0 mi WSW 10.4 mph 17.3 mph N/A   Clear
4:11 PM 39.2 °F 33.6 °F 30.2 °F 70% 29.97 in 10.0 mi West 8.1 mph - N/A   Clear
4:31 PM 39.2 °F 32.0 °F 30.2 °F 70% 29.97 in 10.0 mi West 11.5 mph - N/A   Clear
4:50 PM 39.2 °F 33.0 °F 30.2 °F 70% 29.98 in 10.0 mi West 9.2 mph - N/A   Clear
5:11 PM 37.4 °F 30.8 °F 30.2 °F 75% 29.99 in 10.0 mi West 9.2 mph - N/A   Clear
5:31 PM 37.4 °F 31.4 °F 30.2 °F 75% 29.99 in 10.0 mi West 8.1 mph - N/A   Clear
5:50 PM 37.4 °F 30.8 °F 30.2 °F 75% 29.99 in 10.0 mi West 9.2 mph - N/A   Clear
6:11 PM 37.4 °F 31.4 °F 30.2 °F 75% 30.00 in 10.0 mi West 8.1 mph 16.1 mph N/A   Clear
6:30 PM 35.6 °F 28.6 °F 30.2 °F 81% 30.00 in 10.0 mi West 9.2 mph - N/A   Clear
6:51 PM 35.6 °F 28.6 °F 30.2 °F 81% 30.00 in 10.0 mi West 9.2 mph 16.1 mph N/A   Clear
7:11 PM 35.6 °F 29.2 °F 30.2 °F 81% 30.00 in 10.0 mi West 8.1 mph - N/A   Clear
7:30 PM 35.6 °F 29.9 °F 30.2 °F 81% 30.00 in 10.0 mi West 6.9 mph - N/A   Clear
7:51 PM 35.6 °F 29.2 °F 30.2 °F 81% 30.01 in 10.0 mi West 8.1 mph - N/A   Clear
8:11 PM 35.6 °F 29.9 °F 30.2 °F 81% 30.01 in 10.0 mi West 6.9 mph - N/A   Clear
8:30 PM 33.8 °F 29.6 °F 30.2 °F 87% 30.01 in 10.0 mi West 4.6 mph - N/A   Clear
8:51 PM 33.8 °F 30.8 °F 30.2 °F 87% 30.02 in 10.0 mi West 3.5 mph - N/A   Clear
9:11 PM 33.8 °F 29.6 °F 30.2 °F 87% 30.02 in 10.0 mi West 4.6 mph - N/A   Clear
9:30 PM 33.8 °F 28.6 °F 30.2 °F 87% 30.01 in 10.0 mi West 5.8 mph - N/A   Clear
9:51 PM 33.8 °F 28.6 °F 30.2 °F 87% 30.01 in 10.0 mi SW 5.8 mph - N/A   Clear
10:10 PM 33.8 °F 30.8 °F 30.2 °F 87% 30.01 in 10.0 mi West 3.5 mph - N/A   Clear
10:31 PM 33.8 °F - 30.2 °F 87% 30.01 in 10.0 mi Calm Calm - N/A   Clear
10:50 PM 33.8 °F - 28.4 °F 81% 30.01 in 10.0 mi Calm Calm - N/A   Clear
11:11 PM 30.2 °F 24.3 °F 28.4 °F 93% 30.01 in 10.0 mi SW 5.8 mph - N/A   Clear
11:31 PM 30.2 °F 24.3 °F 28.4 °F 93% 30.01 in 10.0 mi SW 5.8 mph - N/A   Clear
11:50 PM 30.2 °F 25.4 °F 28.4 °F 93% 30.01 in 10.0 mi SSW 4.6 mph - N/A   Clear